Showing default

GLOBALSTAR M055, 25910

Orbit data source: Space-Track

GLOBALSTAR M055, 25910 is a payload satellite owned by Globalstar (US) in LEO that was launched on Wed, 22 Sep 1999 UTC via a SOYUZ-U-PVB launch vehicle from the Tyuratam Missile And Space Complex (TTMTR). Payload-class satellites include a variety of spacecraft equipped with specific instruments for various scientific and technological missions. These include communications satellites like Starlink; space stations such as the ISS; scientific satellites like the Hubble; Earth observation satellites from companies like Planet Labs, Umbra, and HawkEye 360; GPS; miniature CubeSats for education and research; and military/defense satellites.

Loading next visibility...
Identifier
25910, 1999-049D
Orbit
LEO
Last TLE update
17 hours ago
Origin
Manufacturer
SS/Loral
Mission
Non-operational Commercial Communications
Bus & Motor
LS-400, LS-400 AOCS
Mass
450 kg wet, 380 kg dry
Launch date (UTC)
1999-09-22 (26 years ago)
Launch vehicle
SOYUZ-U-PVB
Launch site
Tyuratam Missile And Space Complex (TTMTR)
Object type
Payload
Rocket body
Debris
Shape & HBR
Box + 2 Pan, 6.0 m
Radar Cross Section
5.587 m², Large (>1 m²)

Expand to show TLE details & history

TLE from 17 hours ago
0 GLOBALSTAR M055
1 25910U 99049D   25210.77696476 -.00000092  00000-0  18251-4 0  9993
2 25910  51.9993 237.5088 0007157 219.7639 140.2689 12.29430506173525
Epoch: 2025-07-29T18:38Z
TLE epoch observation values (Epoch: 2025-07-29T18:38:49.755Z)
Latitude
0.00003°
Longitude
10.13583°
Altitude
1,556.765 km
Speed
7.088 km/s
True Right ascension
15h 50m 02s
True Declination
0° 00' 00"
Sunlit
Object was in daylight at epoch
Visualization orbit readout
Latitude
-50.7291°
Longitude
-63.88301°
Altitude
1,566.471 km
Speed
7.086 km/s
Apparent Right ascension
12h 05m 51s
Apparent Declination
-47° 13' 16"
Sunlit
Object is in daylight
Visualization observer readout
Local Sidereal Time
01:19:52
Azimuth
124.778° SE
Elevation
-74.787°
Doppler factor
1
Orbital elements
Apogee altitude
1,557.79 km
Perigee altitude
1,546.439 km
Semi-major axis
7,930.252 km
Eccentricity
0.00072
Inclination
51.9993°
RAAN
237.5088°
Arg. of periapsis
219.7639°
True anomaly
140.32129°
Mean anomaly
140.2689°
Eccentric anomaly
140.2951°
Mean motion
3.07335 °/min
Orbital period
117.14 mins
BSTAR
0.000018251
Loading maneuver chart data...
Loading SW <> Apogee altitude chart data...
Loading historical data...
Loading historical data...
Loading historical data...
Loading historical data...
Loading historical data...
Loading historical data...
Loading historical data...
|